SBI2519 UUDD-UNNT

Flight info

Callsign SBI2519
Flight time N/A
Altitude 33000
Route DCT OLMUN T629 INLEN/N0417F350 T629 IPSIL T830 LAMGU N604 OGSIN P983 TINRI T448 RUBOR A300 ML R814 SZ W1 GOLIM DCT
Aircraft A320/M-SDFGIJ1RWY/LB1

Departure

Time N/A
Airport Domodedovo International Airport (UUDD)

Arrival

Time 2026-05-07 08:10
Airport Novosibirsk Tolmachevo Airport (UNNT)
Time Latitude Longitude Altitude Speed Heading
2026-05-07 07:54 55.11739 80.98394 23565 ft 449 kts 91°
2026-05-07 07:54 55.11786 81.09860 22409 ft 435 kts 90°
2026-05-07 07:54 55.11792 81.11638 22244 ft 433 kts 90°
2026-05-07 07:55 55.11815 81.22085 21262 ft 422 kts 90°
2026-05-07 07:55 55.11829 81.30943 20419 ft 415 kts 90°
2026-05-07 07:56 55.11842 81.42972 19216 ft 409 kts 90°
2026-05-07 07:56 55.11850 81.54839 17944 ft 404 kts 90°
2026-05-07 07:57 55.11838 81.66151 16754 ft 397 kts 90°
2026-05-07 07:58 55.11819 81.77379 15545 ft 390 kts 90°
2026-05-07 07:59 55.11771 81.95193 13601 ft 382 kts 90°
2026-05-07 07:59 55.11736 82.03417 12672 ft 376 kts 90°
2026-05-07 07:59 55.11697 82.11628 11727 ft 370 kts 90°
2026-05-07 08:00 55.11657 82.19366 10819 ft 365 kts 90°
2026-05-07 08:00 55.11612 82.26864 10412 ft 345 kts 90°
2026-05-07 08:01 55.11566 82.33703 10214 ft 323 kts 90°
2026-05-07 08:01 55.11584 82.43141 9697 ft 303 kts 81°
2026-05-07 08:02 55.12608 82.52177 8739 ft 297 kts 77°
2026-05-07 08:03 55.13717 82.60863 7811 ft 292 kts 73°
2026-05-07 08:03 55.14756 82.67041 7106 ft 288 kts 72°
2026-05-07 08:04 55.15899 82.74895 6075 ft 282 kts 87°
2026-05-07 08:04 55.15963 82.81269 5409 ft 272 kts 94°
2026-05-07 08:05 55.11709 82.88957 3740 ft 260 kts 174°
2026-05-07 08:05 55.08511 82.88676 2940 ft 240 kts 187°
2026-05-07 08:06 55.05715 82.88045 2699 ft 209 kts 199°
2026-05-07 08:06 55.03656 82.85640 2517 ft 189 kts 232°
2026-05-07 08:07 55.02675 82.81012 1950 ft 165 kts 261°
2026-05-07 08:08 55.02322 82.77057 1518 ft 142 kts 261°
2026-05-07 08:08 55.02067 82.74206 1170 ft 139 kts 260°
2026-05-07 08:08 55.01817 82.71417 829 ft 138 kts 260°
2026-05-07 08:09 55.01559 82.68543 489 ft 137 kts 261°
2026-05-07 08:09 55.01303 82.65722 372 ft 90 kts 261°
2026-05-07 08:10 55.01190 82.64466 372 ft 43 kts 261°
2026-05-07 08:10 55.01050 82.63996 374 ft 12 kts 171°
2026-05-07 08:11 55.00977 82.64122 373 ft 8 kts 97°
2026-05-07 08:11 55.00964 82.64281 373 ft 7 kts 97°
2026-05-07 08:12 55.00922 82.64621 373 ft 24 kts 103°
2026-05-07 08:12 55.00901 82.65464 373 ft 30 kts 79°
2026-05-07 08:13 55.00948 82.65994 373 ft 24 kts 81°
2026-05-07 08:13 55.00998 82.66261 373 ft 8 kts 69°
2026-05-07 08:14 55.00957 82.66330 373 ft 4 kts 172°
2026-05-07 08:14 55.00945 82.66333 373 ft 0 kts 171°